CEB284 RPLL-RPVM

Flight info

Callsign CEB284
Flight time N/A
Altitude 27000
Route IPATA2R IPATA W25 BATAY BATAY3P
Aircraft A20N/M-SDE2E3FGHIRWXY/LB1

Departure

Time N/A
Airport Ninoy Aquino International Airport (RPLL)

Arrival

Time 2026-04-29 09:51
Airport Mactan Cebu International Airport (RPVM)
Time Latitude Longitude Altitude Speed Heading
2026-04-29 09:02 14.19859 121.55972 19431 ft 391 kts 142°
2026-04-29 09:02 14.17678 121.57633 19843 ft 393 kts 142°
2026-04-29 09:03 14.15478 121.59309 20252 ft 396 kts 142°
2026-04-29 09:03 14.13239 121.61015 20653 ft 399 kts 142°
2026-04-29 09:03 14.10992 121.62726 21047 ft 402 kts 142°
2026-04-29 09:03 14.08748 121.64434 21443 ft 405 kts 142°
2026-04-29 09:04 14.06486 121.66159 21839 ft 408 kts 142°
2026-04-29 09:04 14.04176 121.67924 22212 ft 411 kts 142°
2026-04-29 09:04 14.01869 121.69685 22608 ft 414 kts 143°
2026-04-29 09:04 13.99541 121.71462 22983 ft 417 kts 143°
2026-04-29 09:05 13.97215 121.73237 23365 ft 419 kts 143°
2026-04-29 09:05 13.94876 121.75021 23686 ft 422 kts 143°
2026-04-29 09:05 13.92512 121.76823 24009 ft 424 kts 143°
2026-04-29 09:05 13.90112 121.78652 24345 ft 426 kts 143°
2026-04-29 09:06 13.87713 121.80478 24658 ft 428 kts 143°
2026-04-29 09:06 13.85319 121.82300 24969 ft 430 kts 143°
2026-04-29 09:06 13.82902 121.84128 25268 ft 433 kts 143°
2026-04-29 09:06 13.80483 121.85951 25574 ft 435 kts 143°
2026-04-29 09:07 13.78040 121.87793 25858 ft 436 kts 143°
2026-04-29 09:07 13.75575 121.89651 26151 ft 438 kts 144°
2026-04-29 09:07 13.73115 121.91507 26424 ft 440 kts 144°
2026-04-29 09:07 13.70648 121.93368 26702 ft 442 kts 144°
2026-04-29 09:08 13.68164 121.95241 26873 ft 444 kts 144°
2026-04-29 09:08 13.65666 121.97124 26897 ft 444 kts 144°
2026-04-29 09:08 13.63154 121.99017 26892 ft 443 kts 144°
2026-04-29 09:08 13.60681 122.00880 26893 ft 443 kts 144°
2026-04-29 09:09 13.58217 122.02736 26901 ft 443 kts 144°
2026-04-29 09:09 13.55703 122.04629 26893 ft 443 kts 144°
2026-04-29 09:09 13.53217 122.06500 26897 ft 443 kts 144°
2026-04-29 09:09 13.50735 122.08368 26896 ft 442 kts 144°
2026-04-29 09:10 13.48243 122.10243 26889 ft 443 kts 143°
2026-04-29 09:10 13.45747 122.12121 26892 ft 442 kts 143°
2026-04-29 09:10 13.43275 122.13980 26894 ft 442 kts 143°
2026-04-29 09:10 13.40798 122.15842 26891 ft 442 kts 143°
2026-04-29 09:11 13.38333 122.17695 26889 ft 442 kts 143°
2026-04-29 09:11 13.35840 122.19569 26889 ft 442 kts 143°
2026-04-29 09:11 13.33348 122.21441 26893 ft 442 kts 143°
2026-04-29 09:11 13.30880 122.23294 26891 ft 442 kts 143°
2026-04-29 09:12 13.28394 122.25160 26897 ft 442 kts 143°
2026-04-29 09:12 13.25933 122.27008 26892 ft 441 kts 143°
2026-04-29 09:12 13.23427 122.28888 26894 ft 442 kts 143°
2026-04-29 09:12 13.20961 122.30738 26885 ft 442 kts 143°
2026-04-29 09:13 13.18463 122.32611 26886 ft 442 kts 143°
2026-04-29 09:13 13.15986 122.34468 26891 ft 442 kts 143°
2026-04-29 09:13 13.13515 122.36320 26886 ft 442 kts 143°
2026-04-29 09:13 13.11027 122.38185 26889 ft 442 kts 143°
2026-04-29 09:14 13.08548 122.40043 26886 ft 442 kts 143°
2026-04-29 09:14 13.06886 122.41287 26892 ft 442 kts 143°
2026-04-29 09:14 13.06037 122.41923 26890 ft 442 kts 143°
2026-04-29 09:14 13.01906 122.45017 26891 ft 443 kts 143°
2026-04-29 09:15 12.98606 122.47487 26893 ft 442 kts 143°
2026-04-29 09:15 12.96119 122.49348 26890 ft 442 kts 143°
2026-04-29 09:15 12.93635 122.51206 26890 ft 442 kts 143°
2026-04-29 09:15 12.91121 122.53086 26895 ft 443 kts 143°
2026-04-29 09:16 12.88647 122.54937 26897 ft 442 kts 143°
2026-04-29 09:16 12.86169 122.56789 26891 ft 442 kts 143°
2026-04-29 09:16 12.83698 122.58636 26891 ft 442 kts 143°
2026-04-29 09:16 12.81208 122.60496 26896 ft 442 kts 143°
2026-04-29 09:17 12.78718 122.62356 26888 ft 442 kts 143°
2026-04-29 09:17 12.76233 122.64212 26900 ft 442 kts 143°
2026-04-29 09:17 12.73723 122.66086 26887 ft 442 kts 143°
2026-04-29 09:17 12.71266 122.67920 26892 ft 442 kts 143°
2026-04-29 09:18 12.68767 122.69784 26886 ft 441 kts 143°
2026-04-29 09:18 12.66291 122.71631 26890 ft 441 kts 143°
2026-04-29 09:18 12.63810 122.73482 26887 ft 441 kts 143°
2026-04-29 09:18 12.61345 122.75319 26891 ft 441 kts 143°
2026-04-29 09:19 12.58854 122.77177 26891 ft 441 kts 143°
2026-04-29 09:19 12.56348 122.79044 26890 ft 441 kts 143°
2026-04-29 09:19 12.53868 122.80892 26888 ft 441 kts 143°
2026-04-29 09:19 12.51392 122.82737 26886 ft 441 kts 143°
2026-04-29 09:20 12.48922 122.84577 26888 ft 441 kts 143°
2026-04-29 09:20 12.46422 122.86438 26894 ft 441 kts 143°
2026-04-29 09:20 12.43954 122.88276 26895 ft 441 kts 143°
2026-04-29 09:20 12.41455 122.90135 26891 ft 441 kts 143°
2026-04-29 09:21 12.38993 122.91968 26884 ft 441 kts 143°
2026-04-29 09:21 12.36515 122.93811 26892 ft 441 kts 143°
2026-04-29 09:21 12.34003 122.95680 26891 ft 441 kts 143°
2026-04-29 09:21 12.31555 122.97501 26885 ft 441 kts 143°
2026-04-29 09:22 12.29049 122.99364 26894 ft 441 kts 143°
2026-04-29 09:22 12.26578 123.01200 26887 ft 441 kts 143°
2026-04-29 09:22 12.24106 123.03036 26887 ft 441 kts 143°
2026-04-29 09:22 12.21592 123.04904 26892 ft 441 kts 143°
2026-04-29 09:23 12.19111 123.06747 26892 ft 441 kts 143°
2026-04-29 09:23 12.16642 123.08580 26888 ft 441 kts 143°
2026-04-29 09:23 12.14150 123.10430 26892 ft 441 kts 143°
2026-04-29 09:23 12.11687 123.12258 26884 ft 441 kts 143°
2026-04-29 09:24 12.09184 123.14115 26887 ft 441 kts 143°
2026-04-29 09:24 12.06717 123.15945 26889 ft 441 kts 143°
2026-04-29 09:24 12.04203 123.17810 26889 ft 441 kts 143°
2026-04-29 09:24 12.01736 123.19639 26889 ft 442 kts 143°
2026-04-29 09:25 11.99230 123.21497 26881 ft 441 kts 143°
2026-04-29 09:25 11.96765 123.23324 26890 ft 441 kts 143°
2026-04-29 09:25 11.94287 123.25160 26886 ft 441 kts 143°
2026-04-29 09:25 11.91777 123.27019 26883 ft 441 kts 143°
2026-04-29 09:26 11.89291 123.28860 26881 ft 441 kts 143°
2026-04-29 09:26 11.86821 123.30689 26883 ft 441 kts 143°
2026-04-29 09:26 11.84318 123.32542 26884 ft 441 kts 143°
2026-04-29 09:26 11.81833 123.34382 26886 ft 442 kts 143°
2026-04-29 09:27 11.79363 123.36209 26890 ft 441 kts 143°
2026-04-29 09:27 11.76866 123.38056 26886 ft 441 kts 143°
2026-04-29 09:27 11.74400 123.39880 26890 ft 441 kts 143°
2026-04-29 09:27 11.71895 123.41732 26881 ft 441 kts 143°
2026-04-29 09:28 11.69404 123.43574 26886 ft 441 kts 143°
2026-04-29 09:28 11.66920 123.45410 26882 ft 441 kts 143°
2026-04-29 09:28 11.64447 123.47238 26887 ft 441 kts 143°
2026-04-29 09:28 11.61940 123.49089 26884 ft 441 kts 143°
2026-04-29 09:29 11.59468 123.50915 26880 ft 441 kts 143°
2026-04-29 09:29 11.54493 123.54589 26883 ft 441 kts 143°
2026-04-29 09:29 11.52027 123.56409 26883 ft 441 kts 143°
2026-04-29 09:30 11.49533 123.58250 26882 ft 441 kts 143°
2026-04-29 09:30 11.47047 123.60084 26882 ft 441 kts 143°
2026-04-29 09:30 11.44584 123.61901 26874 ft 441 kts 143°
2026-04-29 09:30 11.42070 123.63755 26875 ft 440 kts 143°
2026-04-29 09:31 11.39606 123.65572 26876 ft 440 kts 143°
2026-04-29 09:31 11.37094 123.67423 26874 ft 440 kts 143°
2026-04-29 09:31 11.34643 123.69230 26879 ft 440 kts 143°
2026-04-29 09:31 11.32152 123.71065 26790 ft 440 kts 143°
2026-04-29 09:32 11.29661 123.72899 26551 ft 439 kts 143°
2026-04-29 09:32 11.28022 123.74106 26241 ft 439 kts 143°
2026-04-29 09:32 11.24713 123.76543 25420 ft 439 kts 143°
2026-04-29 09:32 11.23075 123.77750 25025 ft 438 kts 143°
2026-04-29 09:33 11.19787 123.80169 24252 ft 434 kts 143°
2026-04-29 09:33 11.18160 123.81363 23820 ft 434 kts 144°
2026-04-29 09:33 11.14573 123.83198 22928 ft 434 kts 161°
2026-04-29 09:33 11.12603 123.83656 22583 ft 431 kts 171°
2026-04-29 09:34 11.09621 123.83729 22053 ft 427 kts 185°
2026-04-29 09:34 11.06736 123.83108 21472 ft 424 kts 195°
2026-04-29 09:34 11.03963 123.82164 20883 ft 422 kts 198°
2026-04-29 09:34 11.01169 123.81185 20226 ft 421 kts 197°
2026-04-29 09:35 10.98429 123.80295 19668 ft 417 kts 195°
2026-04-29 09:35 10.95630 123.79452 19106 ft 413 kts 194°
2026-04-29 09:35 10.92864 123.78658 18504 ft 412 kts 193°
2026-04-29 09:35 10.90128 123.77889 17879 ft 411 kts 193°
2026-04-29 09:36 10.87375 123.77123 17321 ft 406 kts 193°
2026-04-29 09:36 10.84676 123.76373 16739 ft 402 kts 193°
2026-04-29 09:36 10.81953 123.75615 16152 ft 399 kts 193°
2026-04-29 09:36 10.79287 123.74873 15539 ft 398 kts 193°
2026-04-29 09:37 10.76661 123.74141 14994 ft 395 kts 193°
2026-04-29 09:37 10.74018 123.73405 14403 ft 393 kts 194°
2026-04-29 09:37 10.71358 123.72664 13645 ft 397 kts 194°
2026-04-29 09:37 10.68690 123.71921 12979 ft 396 kts 194°
2026-04-29 09:38 10.66030 123.71180 12414 ft 392 kts 194°
2026-04-29 09:38 10.63427 123.70454 11842 ft 388 kts 194°
2026-04-29 09:38 10.60860 123.69739 11271 ft 385 kts 194°
2026-04-29 09:38 10.58268 123.69018 10699 ft 380 kts 194°
2026-04-29 09:39 10.55784 123.68326 10447 ft 360 kts 194°
2026-04-29 09:39 10.53414 123.67665 10303 ft 344 kts 194°
2026-04-29 09:39 10.51160 123.67038 10185 ft 331 kts 194°
2026-04-29 09:39 10.48964 123.66427 10061 ft 318 kts 194°
2026-04-29 09:40 10.46865 123.65844 9765 ft 314 kts 194°
2026-04-29 09:40 10.44754 123.65257 9352 ft 312 kts 194°
2026-04-29 09:40 10.42688 123.64682 8979 ft 309 kts 194°
2026-04-29 09:40 10.40613 123.64105 8435 ft 305 kts 194°
2026-04-29 09:41 10.38582 123.63540 7893 ft 302 kts 194°
2026-04-29 09:41 10.36570 123.63002 7516 ft 296 kts 188°
2026-04-29 09:41 10.34564 123.63066 7160 ft 288 kts 162°
2026-04-29 09:41 10.32846 123.63966 6809 ft 281 kts 136°
2026-04-29 09:42 10.31445 123.65352 6451 ft 278 kts 131°
2026-04-29 09:42 10.30121 123.66774 6096 ft 276 kts 131°
2026-04-29 09:42 10.28800 123.68187 5724 ft 274 kts 131°
2026-04-29 09:42 10.27481 123.69572 5387 ft 272 kts 131°
2026-04-29 09:43 10.26154 123.70941 5167 ft 266 kts 132°
2026-04-29 09:43 10.24884 123.72238 5075 ft 254 kts 132°
2026-04-29 09:43 10.23653 123.73487 4973 ft 243 kts 132°
2026-04-29 09:43 10.22484 123.74669 4872 ft 232 kts 132°
2026-04-29 09:44 10.21370 123.75794 4784 ft 221 kts 132°
2026-04-29 09:44 10.20310 123.76867 4692 ft 205 kts 131°
2026-04-29 09:44 10.19359 123.77831 4600 ft 186 kts 131°
2026-04-29 09:44 10.18487 123.78714 4493 ft 171 kts 131°
2026-04-29 09:45 10.17670 123.79546 4389 ft 160 kts 131°
2026-04-29 09:45 10.16897 123.80333 4180 ft 156 kts 131°
2026-04-29 09:45 10.16147 123.81120 3938 ft 155 kts 123°
2026-04-29 09:45 10.15774 123.82116 3648 ft 151 kts 88°
2026-04-29 09:46 10.16036 123.83124 3401 ft 148 kts 57°
2026-04-29 09:46 10.16738 123.83869 3138 ft 148 kts 44°
2026-04-29 09:46 10.17488 123.84595 2919 ft 146 kts 46°
2026-04-29 09:46 10.18209 123.85318 2653 ft 148 kts 46°
2026-04-29 09:47 10.18933 123.86050 2439 ft 145 kts 46°
2026-04-29 09:47 10.19648 123.86773 2263 ft 148 kts 46°
2026-04-29 09:47 10.20374 123.87507 2177 ft 143 kts 46°
2026-04-29 09:47 10.21084 123.88224 2010 ft 146 kts 46°
2026-04-29 09:48 10.21812 123.88954 1813 ft 147 kts 46°
2026-04-29 09:48 10.22547 123.89695 1640 ft 149 kts 46°
2026-04-29 09:48 10.23273 123.90421 1415 ft 149 kts 46°
2026-04-29 09:48 10.23992 123.91145 1264 ft 139 kts 46°
2026-04-29 09:49 10.24652 123.91801 1062 ft 129 kts 47°
2026-04-29 09:49 10.25297 123.92452 849 ft 132 kts 46°
2026-04-29 09:49 10.25952 123.93109 684 ft 130 kts 47°
2026-04-29 09:49 10.26592 123.93754 585 ft 130 kts 47°
2026-04-29 09:50 10.27237 123.94412 454 ft 132 kts 47°
2026-04-29 09:50 10.27871 123.95069 357 ft 133 kts 47°
2026-04-29 09:50 10.28531 123.95708 294 ft 130 kts 46°
2026-04-29 09:50 10.29183 123.96361 152 ft 132 kts 46°
2026-04-29 09:51 10.29834 123.97017 46 ft 127 kts 47°
2026-04-29 09:51 10.30362 123.97550 35 ft 72 kts 42°
2026-04-29 09:51 10.30617 123.97805 35 ft 26 kts 46°
2026-04-29 09:51 10.30732 123.97863 35 ft 7 kts 333°
2026-04-29 09:52 10.30763 123.97829 36 ft 10 kts 314°
2026-04-29 09:52 10.30826 123.97763 37 ft 15 kts 314°
2026-04-29 09:52 10.30916 123.97710 38 ft 15 kts 11°
2026-04-29 09:52 10.30995 123.97776 38 ft 16 kts 45°
2026-04-29 09:53 10.31076 123.97860 37 ft 17 kts 45°
2026-04-29 09:53 10.31165 123.97948 37 ft 19 kts 42°
2026-04-29 09:53 10.31262 123.97944 38 ft 16 kts 304°
2026-04-29 09:53 10.31358 123.97898 38 ft 16 kts 325°
2026-04-29 09:54 10.31414 123.97835 38 ft 8 kts 314°
2026-04-29 09:54 10.31416 123.97833 38 ft 0 kts 314°